Regional Weather Roundup
Issued by NWS Huntsville, AL

Home | Current Version | Previous Version | Text Only | Print | Product List | Glossary On
Versions: 1 2 3 4 5 6 7 8 9 10 11 12 13 14 15 16 17 18 19 20 21 22 23 24 25 26 27 28 29 30 31 32 33 34 35
000
ASUS44 KHUN 220910
RWRHUN

WEATHER ROUNDUP FOR THE TENNESSEE VALLEY
NATIONAL WEATHER SERVICE HUNTSVILLE AL
400 AM CDT WED OCT 22 2014

ALZ001>004-221000-
NORTHWEST ALABAMA

CITY           SKY/WX    TMP DP  RH WIND       PRES   REMARKS
SHOALS AIRPORT CLEAR     52  44  74 NE6       30.14R
$$

ALZ005>007-016-221000-
NORTH CENTRAL ALABAMA

CITY           SKY/WX    TMP DP  RH WIND       PRES   REMARKS
DECATUR AP     CLEAR     49  42  77 NE3       30.13R
HUNTSVILLE AP  CLEAR     51  43  74 NE7       30.11R
HUN NWS/UAH      N/A     50  42  73 NE5         N/A
MERIDIANVILLE  CLEAR     45  39  81 N5        30.13R
VINEMONT AP    FAIR      44  43  96 CALM      30.12R
$$

ALZ008>010-221000-
NORTHEAST ALABAMA

CITY           SKY/WX    TMP DP  RH WIND       PRES   REMARKS
ALBERTVILLE    CLEAR     46  46 100 CALM      30.09S
FORT PAYNE     CLEAR     41  37  87 CALM      30.10R
SCOTTSBORO AP  CLEAR     46  43  87 CALM      30.12R
SCOTTSBORO HCN   N/A     45 N/A N/A MISG        N/A
VALLEY HEAD      N/A     41 N/A N/A MISG        N/A
$$

TNZ076-096-097-221000-
SOUTHEASTERN MIDDLE TENNESSEE

CITY           SKY/WX    TMP DP  RH WIND       PRES   REMARKS
TULLAHOMA      CLEAR     41  37  87 CALM      30.14R
WINCHESTER     MOCLDY    37  37 100 CALM      30.14R
$$

...SURROUNDING SITES...

CITY           SKY/WX    TMP DP  RH WIND       PRES   REMARKS
ATLANTA        CLEAR     50  44  80 N7        30.03S
ANNISTON       CLEAR     48  46  93 E3        30.08R
BIRMINGHAM     CLEAR     49  46  90 CALM      30.10S
CHATTANOOGA    CLEAR     46  40  79 NW6       30.11R
CORINTH        FAIR      46  45  93 NW3       30.14R
DALTON         CLEAR     45  43  93 NW8       30.09R
GADSDEN        CLEAR     45  39  81 CALM      30.10S
GOLDEN TRNGL   CLEAR     48  43  81 N6        30.09R
HALEYVILLE     FAIR      44  43  97 CALM      30.14R
JACKSON TN     CLEAR     46  41  82 CALM      30.16R
MEMPHIS        CLEAR     56  46  69 E8        30.14S
NASHVILLE      CLEAR     45  41  86 N5        30.17R
OXFORD MS      FAIR      50  46  87 NE8       30.14R
ROME           CLEAR     48  43  82 N6        30.08S
SAVANNAH       CLEAR     43  43 100 CALM      30.15R
TUPELO         CLEAR     48  45  89 NE7       30.12R
TUSCALOOSA     CLEAR     53  48  83 N8        30.08S
$$

...GULF COAST WEATHER...

CITY           SKY/WX    TMP DP  RH WIND       PRES   REMARKS
GULFPORT       CLEAR     56  53  90 N3        30.02S
PASCAGOULA     CLEAR     50  50 100 CALM      30.02S
MOBILE         CLEAR     59  54  83 N8        30.03S
GULF SHORES    SUNNY     53  52  96 CALM      30.02R
PENSACOLA      CLEAR     57  54  89 N5        30.01R
DESTIN         CLEAR     65  56  72 N7        30.00S
PANAMA CITY    CLEAR     58  55  89 N6        29.99R
APPALACHICOLA  CLEAR     63  55  75 N7        29.97S
$$




USA.gov is the U.S. government's official web portal to all federal, state and local government web resources and services.